R/V Knorr Calliope CSV data file  (Time stamps are GMT)
Date, Time_GMT, Depth12, Depth35, Air_Temp, WXT5_Ta, WXT5_Pa, dec_lat, dec_lon, GPS_COG, GPS_SOG, Gyro, IMET_BPR, IMET_SWR, WXT5_Ri, WXT5_Rc, HRH, WXT5_Ua, WXT5_Dm, WXT5_Sm, SBE45C, SBE45S, SBE45T, Salinity, SSCND, Fluorometer, SSTMP, SSV, Wnd_Dir, TWD5, Wnd_Spd, TWS5, HdChkSum=3E
2009/04/19, 00:00:22, , , 23.04, 23.10, 1010.8, 16.0784230, -140.9537330, 296.70, 12.39, 292.20, 1010.68, 707.40, 0.0, 199.23, 74.47, 71.3, 113, 7.2, 53.35540, 34.27560, 26.2268, 34.2756, 53.3554, 60.20, 24.3022, 1531.91, 69.10, 71.7, 10.81, 10.1, 3E
2009/04/19, 00:01:23, , , 23.24, 23.10, 1010.8, 16.0796750, -140.9570420, 293.70, 12.61, 288.40, 1010.69, 714.20, 0.0, 199.23, 75.70, 73.3, 117, 7.1, 53.35340, 34.27470, 26.2260, 34.2747, 53.3534, 60.00, 24.3029, 1531.91, 70.10, 72.6, 10.37, 11.2, 3E
2009/04/19, 00:02:22, , , 23.17, 23.10, 1010.7, 16.0810400, -140.9602430, 300.40, 12.45, 294.80, 1010.58, 710.40, 0.0, 199.23, 74.65, 71.7, 101, 7.0, 53.35060, 34.27200, 26.2269, 34.2720, 53.3506, 60.00, 24.3029, 1531.91, 75.80, 72.0, 10.03, 12.1, 3E
2009/04/19, 00:03:22, , , 23.32, 23.10, 1010.8, 16.0824770, -140.9633900, 292.10, 12.09, 294.20, 1010.53, 616.40, 0.0, 199.23, 75.00, 72.7, 108, 7.7, 53.34530, 34.26970, 26.2249, 34.2697, 53.3453, 60.00, 24.3032, 1531.91, 67.90, 75.9, 10.33, 9.4, 3E
2009/04/19, 00:04:22, , , 23.24, 23.20, 1010.8, 16.0838770, -140.9666230, 291.80, 12.15, 294.50, 1010.62, 537.80, 0.0, 199.23, 73.94, 71.2, 106, 7.8, 53.34070, 34.26710, 26.2239, 34.2671, 53.3407, 60.00, 24.3042, 1531.91, 67.20, 73.9, 10.86, 10.4, 3E
2009/04/19, 00:05:22, , , 23.23, 23.20, 1010.5, 16.0853070, -140.9697130, 293.20, 12.26, 295.30, 1010.64, 552.30, 0.0, 199.23, 73.06, 70.5, 107, 7.2, 53.33370, 34.26220, 26.2238, 34.2622, 53.3337, 60.00, 24.3043, 1531.90, 67.40, 75.7, 11.11, 10.4, 3E
2009/04/19, 00:06:22, , , 23.32, 23.10, 1010.8, 16.0867480, -140.9729120, 291.80, 12.18, 295.40, 1010.78, 564.40, 0.0, 199.23, 73.62, 71.3, 107, 8.0, 53.32720, 34.25650, 26.2251, 34.2565, 53.3272, 60.00, 24.3046, 1531.90, 68.00, 71.4, 11.34, 10.7, 3E
2009/04/19, 00:07:22, , , 23.28, 23.20, 1010.8, 16.0882080, -140.9761120, 297.10, 11.73, 294.50, 1010.23, 612.80, 0.0, 199.23, 72.28, 69.6, 117, 7.5, 53.31900, 34.25120, 26.2242, 34.2512, 53.3190, 60.00, 24.3059, 1531.89, 68.90, 77.7, 10.23, 11.6, 3E
2009/04/19, 00:08:22, , , 23.26, 23.20, 1010.8, 16.0896300, -140.9792920, 293.20, 12.28, 294.10, 1010.65, 591.60, 0.0, 199.23, 72.30, 69.5, 113, 6.0, 53.30890, 34.24660, 26.2207, 34.2466, 53.3089, 60.00, 24.3060, 1531.89, 71.10, 82.7, 11.31, 11.9, 3E
2009/04/19, 00:09:22, , , 23.30, 23.20, 1010.8, 16.0910750, -140.9824680, 303.10, 12.35, 296.00, 1010.64, 586.00, 0.0, 199.23, 72.72, 70.2, 117, 6.5, 53.30400, 34.24340, 26.2201, 34.2434, 53.3040, 60.00, 24.3070, 1531.89, 80.30, 85.5, 10.16, 12.0, 3E
2009/04/19, 00:10:22, , , 23.33, 23.20, 1010.8, 16.0925380, -140.9856980, 300.50, 11.69, 294.40, 1010.47, 530.00, 0.0, 199.23, 73.87, 71.3, 111, 7.8, 53.29990, 34.23990, 26.2208, 34.2399, 53.2999, 59.80, 24.3081, 1531.89, 78.20, 73.3, 9.54, 11.1, 3E
2009/04/19, 00:11:22, , , 23.31, 23.30, 1010.7, 16.0939630, -140.9888950, 300.30, 11.68, 293.70, 1010.81, 508.10, 0.0, 199.23, 74.36, 71.4, 110, 8.2, 53.29650, 34.23880, 26.2191, 34.2388, 53.2965, 60.00, 24.3092, 1531.89, 71.90, 63.1, 9.74, 10.8, 3E
2009/04/19, 00:12:22, , , 23.32, 23.30, 1010.7, 16.0953800, -140.9920080, 301.00, 12.14, 293.80, 1010.45, 505.80, 0.0, 199.23, 74.42, 71.5, 112, 8.4, 53.29550, 34.23670, 26.2209, 34.2367, 53.2955, 60.00, 24.3098, 1531.89, 71.50, 71.6, 10.18, 10.9, 3E
2009/04/19, 00:13:22, , , 23.38, 23.30, 1010.9, 16.0968530, -140.9952300, 290.30, 12.73, 297.20, 1010.66, 530.40, 0.0, 199.23, 75.77, 74.0, 96, 6.9, 53.29140, 34.23560, 26.2184, 34.2356, 53.2914, 60.00, 24.3112, 1531.89, 70.00, 78.2, 11.19, 8.9, 3E
2009/04/19, 00:14:22, , , 23.46, 23.30, 1010.8, 16.0984330, -140.9982330, 304.10, 12.50, 297.80, 1010.72, 506.00, 0.0, 199.23, 75.88, 73.6, 94, 7.1, 53.29110, 34.23460, 26.2195, 34.2346, 53.2911, 59.80, 24.3121, 1531.89, 75.50, 73.0, 9.88, 9.9, 3E
2009/04/19, 00:15:22, , , 23.41, 23.30, 1010.8, 16.1000330, -141.0013170, 294.60, 12.39, 297.20, 1010.73, 482.50, 0.0, 199.23, 75.78, 73.6, 107, 7.3, 53.29270, 34.23380, 26.2221, 34.2338, 53.2927, 60.00, 24.3144, 1531.90, 66.80, 68.5, 10.78, 10.8, 3E
2009/04/19, 00:16:22, , , 23.34, 23.20, 1010.7, 16.1016350, -141.0044080, 304.50, 11.42, 296.00, 1010.61, 469.40, 0.0, 199.23, 75.15, 72.5, 109, 7.6, 53.29650, 34.23310, 26.2267, 34.2331, 53.2965, 59.80, 24.3159, 1531.90, 67.30, 76.3, 9.66, 10.9, 3E
2009/04/19, 00:17:22, , , 23.32, 23.20, 1010.9, 16.1031930, -141.0075120, 296.20, 12.39, 297.50, 1010.70, 475.60, 0.0, 199.23, 75.60, 73.3, 95, 7.9, 53.29570, 34.23270, 26.2265, 34.2327, 53.2957, 60.00, 24.3163, 1531.90, 71.40, 66.3, 10.85, 9.9, 3E
2009/04/19, 00:18:22, , , 23.36, 23.20, 1010.8, 16.1047920, -141.0105930, 296.50, 12.56, 297.20, 1010.67, 496.40, 0.0, 199.23, 74.97, 72.5, 102, 7.6, 53.29630, 34.23130, 26.2289, 34.2313, 53.2963, 60.00, 24.3169, 1531.90, 67.80, 70.5, 10.66, 10.7, 3E
2009/04/19, 00:19:22, , , 23.25, 23.10, 1011.0, 16.1063480, -141.0137120, 297.10, 12.18, 297.40, 1010.83, 519.50, 0.0, 199.23, 74.02, 71.3, 97, 7.1, 53.29700, 34.23030, 26.2310, 34.2303, 53.2970, 60.00, 24.3187, 1531.90, 69.40, 70.4, 10.98, 9.9, 3E
2009/04/19, 00:20:22, , , 23.39, 23.20, 1010.7, 16.1079530, -141.0168970, 295.90, 12.32, 298.40, 1010.65, 542.20, 0.0, 199.23, 74.66, 72.6, 101, 6.8, 53.29700, 34.22930, 26.2324, 34.2293, 53.2970, 60.00, 24.3195, 1531.90, 71.70, 72.3, 10.54, 10.4, 3E
2009/04/19, 00:21:22, , , 23.42, 23.20, 1010.8, 16.1094600, -141.0199470, 303.00, 11.36, 295.50, 1010.54, 530.80, 0.0, 199.23, 74.93, 72.8, 111, 8.2, 53.29570, 34.22800, 26.2329, 34.2280, 53.2957, 60.00, 24.3195, 1531.90, 70.30, 70.2, 9.36, 10.5, 3E
2009/04/19, 00:22:22, , , 23.38, 23.20, 1010.8, 16.1110430, -141.0230630, 291.40, 11.55, 298.80, 1010.64, 510.50, 0.0, 199.23, 74.94, 72.9, 107, 8.6, 53.29990, 34.22770, 26.2372, 34.2277, 53.2999, 59.80, 24.3185, 1531.90, 69.10, 73.9, 10.29, 10.8, 3E
2009/04/19, 00:23:22, , , 23.40, 23.20, 1010.9, 16.1126080, -141.0260850, 300.20, 11.98, 299.80, 1010.71, 472.80, 0.0, 199.23, 75.20, 73.5, 102, 8.7, 53.30050, 34.22570, 26.2405, 34.2257, 53.3005, 59.80, 24.3189, 1531.90, 71.90, 71.1, 10.74, 10.7, 3E
2009/04/19, 00:24:22, , , 23.35, 23.20, 1010.7, 16.1143150, -141.0291250, 300.00, 12.59, 300.20, 1010.52, 460.80, 0.0, 199.23, 74.57, 72.1, 103, 7.6, 53.30120, 34.22520, 26.2419, 34.2252, 53.3012, 59.80, 24.3195, 1531.90, 71.20, 72.7, 11.47, 11.9, 3E
2009/04/19, 00:25:22, , , 23.31, 23.20, 1010.7, 16.1160370, -141.0321830, 307.10, 12.29, 299.10, 1010.60, 446.50, 0.0, 199.23, 74.72, 72.4, 102, 7.9, 53.30010, 34.22430, 26.2421, 34.2243, 53.3001, 60.00, 24.3193, 1531.90, 73.50, 78.6, 10.58, 9.8, 3E
2009/04/19, 00:26:22, , , 23.40, 23.20, 1010.8, 16.1177230, -141.0352450, 304.00, 12.59, 298.80, 1010.63, 434.20, 0.0, 199.23, 75.17, 73.3, 97, 7.2, 53.30320, 34.22290, 26.2469, 34.2229, 53.3032, 59.80, 24.3196, 1531.90, 74.20, 72.9, 10.18, 9.6, 3E
2009/04/19, 00:27:22, , , 23.48, 23.20, 1010.8, 16.1193450, -141.0382870, 296.20, 11.96, 299.60, 1010.65, 473.00, 0.0, 199.23, 75.93, 74.6, 102, 8.0, 53.27740, 34.20300, 26.2486, 34.2030, 53.2774, 60.00, 24.3200, 1531.88, 71.20, 70.3, 9.86, 11.7, 3E
2009/04/19, 00:28:22, , , 23.32, 23.20, 1010.6, 16.1210030, -141.0412700, 303.20, 12.76, 303.00, 1010.87, 494.70, 0.0, 199.23, 74.77, 72.3, 107, 7.6, 53.30660, 34.22180, 26.2517, 34.2218, 53.3066, 59.80, 24.3209, 1531.90, 74.50, 69.2, 11.22, 11.1, 3E
2009/04/19, 00:29:22, , , 23.32, 23.20, 1011.1, 16.1227670, -141.0441920, 303.60, 11.89, 303.50, 1010.98, 486.50, 0.0, 199.23, 74.69, 72.3, 100, 7.7, 53.30610, 34.22160, 26.2514, 34.2216, 53.3061, 59.80, 24.3211, 1531.90, 76.00, 77.0, 10.69, 10.1, 3E
2009/04/19, 00:30:23, , , 23.45, 23.20, 1010.8, 16.1245780, -141.0471870, 301.70, 12.22, 297.90, 1010.77, 481.90, 0.0, 199.23, 75.64, 73.9, 99, 8.2, 53.30890, 34.22050, 26.2557, 34.2205, 53.3089, 60.00, 24.3220, 1531.90, 71.00, 70.6, 10.04, 10.4, 3E
2009/04/19, 00:31:22, , , 23.31, 23.20, 1010.7, 16.1261680, -141.0502700, 293.50, 11.44, 293.90, 1010.63, 477.40, 0.0, 199.23, 74.36, 72.0, 115, 7.4, 53.31020, 34.22050, 26.2569, 34.2205, 53.3102, 60.00, 24.3222, 1531.90, 61.10, 72.7, 10.75, 10.0, 3E
2009/04/19, 00:32:22, , , 23.33, 23.20, 1010.8, 16.1274930, -141.0534150, 287.90, 12.15, 292.50, 1010.80, 472.00, 0.0, 199.23, 74.77, 72.5, 104, 6.9, 53.30940, 34.22110, 26.2553, 34.2211, 53.3094, 60.00, 24.3231, 1531.90, 66.20, 75.5, 10.73, 10.0, 3E
2009/04/19, 00:33:22, , , 23.32, 23.20, 1010.8, 16.1288030, -141.0566120, 292.60, 11.44, 292.60, 1010.74, 457.50, 0.0, 199.23, 74.82, 72.6, 114, 6.1, 53.30940, 34.22110, 26.2553, 34.2211, 53.3094, 59.80, 24.3238, 1531.90, 70.30, 75.4, 9.63, 9.6, 3E
2009/04/19, 00:34:22, , , 23.35, 23.20, 1010.9, 16.1301570, -141.0597720, 291.80, 11.51, 292.50, 1010.70, 375.60, 0.0, 199.23, 75.94, 73.7, 112, 6.0, 53.31150, 34.22120, 26.2572, 34.2212, 53.3115, 60.00, 24.3253, 1531.91, 71.50, 77.6, 9.68, 10.5, 3E
2009/04/19, 00:35:22, , , 23.38, 23.20, 1010.9, 16.1314750, -141.0629580, 295.60, 11.93, 291.40, 1010.67, 351.60, 0.0, 199.23, 76.68, 74.8, 118, 6.9, 53.31560, 34.22190, 26.2603, 34.2219, 53.3156, 59.80, 24.3255, 1531.91, 71.50, 75.3, 9.26, 10.4, 3E
2009/04/19, 00:36:22, , , 23.28, 23.20, 1010.9, 16.1327950, -141.0661430, 290.90, 12.11, 291.30, 1010.63, 358.80, 0.0, 199.23, 76.67, 74.1, 105, 6.9, 53.31760, 34.22280, 26.2610, 34.2228, 53.3176, 60.00, 24.3264, 1531.91, 68.80, 70.8, 10.34, 9.9, 3E
2009/04/19, 00:37:22, , , 23.27, 23.20, 1011.0, 16.1340520, -141.0693200, 298.80, 12.31, 288.50, 1010.57, 372.50, 0.0, 199.23, 76.29, 73.7, 114, 7.3, 53.32260, 34.22370, 26.2646, 34.2237, 53.3226, 60.00, 24.3269, 1531.91, 68.80, 73.6, 9.23, 10.9, 3E
2009/04/19, 00:38:22, , , 23.22, 23.20, 1010.8, 16.1352880, -141.0724820, 292.50, 11.88, 291.10, 1010.55, 417.40, 0.0, 199.23, 76.01, 73.3, 105, 6.7, 53.32650, 34.22520, 26.2664, 34.2252, 53.3265, 60.20, 24.3281, 1531.92, 70.50, 73.7, 10.29, 8.8, 3E
2009/04/19, 00:39:22, , , 23.26, 23.20, 1010.8, 16.1365900, -141.0756500, 296.10, 11.75, 291.00, 1010.60, 419.30, 0.0, 199.23, 74.90, 72.2, 114, 7.3, 53.32900, 34.22640, 26.2673, 34.2264, 53.3290, 60.00, 24.3286, 1531.92, 69.60, 69.1, 9.74, 12.0, 3E
2009/04/19, 00:40:22, , , 23.19, 23.10, 1011.0, 16.1378570, -141.0788400, 291.40, 12.13, 291.30, 1010.91, 416.50, 0.0, 199.23, 74.74, 71.9, 105, 6.0, 53.33270, 34.22690, 26.2701, 34.2269, 53.3327, 60.00, 24.3294, 1531.92, 68.30, 71.1, 10.91, 9.4, 3E
2009/04/19, 00:41:22, , , 23.34, 23.20, 1010.9, 16.1391470, -141.0820070, 295.20, 11.64, 289.90, 1010.69, 409.30, 0.0, 199.23, 75.23, 73.2, 116, 7.0, 53.33650, 34.22810, 26.2723, 34.2281, 53.3365, 60.00, 24.3293, 1531.93, 69.60, 69.9, 8.94, 10.9, 3E
2009/04/19, 00:42:22, , , 23.29, 23.20, 1010.9, 16.1404430, -141.0852000, 296.60, 12.36, 290.30, 1010.85, 405.60, 0.0, 199.23, 75.29, 73.3, 106, 7.1, 53.34120, 34.22890, 26.2757, 34.2289, 53.3412, 60.00, 24.3302, 1531.93, 70.70, 66.7, 10.05, 10.8, 3E
2009/04/19, 00:43:22, , , 23.32, 23.20, 1011.0, 16.1417050, -141.0884130, 283.60, 13.11, 292.80, 1010.77, 414.20, 0.0, 199.23, 75.43, 73.4, 102, 7.7, 53.34090, 34.22920, 26.2750, 34.2292, 53.3409, 60.20, 24.3307, 1531.93, 64.40, 66.9, 11.59, 10.0, 3E
2009/04/19, 00:44:22, , , 23.27, 23.20, 1011.0, 16.1429170, -141.0915920, 283.00, 12.28, 291.50, 1010.74, 409.10, 0.0, 199.23, 75.04, 72.7, 105, 6.9, 53.34330, 34.22900, 26.2776, 34.2290, 53.3433, 60.00, 24.3322, 1531.93, 61.20, 70.7, 11.20, 9.7, 3E
2009/04/19, 00:45:22, , , 23.29, 23.20, 1011.0, 16.1441630, -141.0947520, 293.80, 11.82, 288.90, 1010.90, 387.30, 0.0, 199.23, 75.24, 72.7, 100, 6.8, 53.34450, 34.22890, 26.2790, 34.2289, 53.3445, 60.00, 24.3336, 1531.94, 66.00, 71.7, 9.65, 10.2, 3E
2009/04/19, 00:46:23, , , 23.31, 23.20, 1010.9, 16.1453880, -141.0979300, 301.20, 11.20, 289.30, 1010.74, 367.70, 0.0, 199.23, 75.93, 73.8, 102, 7.3, 53.34620, 34.22820, 26.2816, 34.2282, 53.3462, 60.00, 24.3345, 1531.94, 68.50, 64.3, 9.00, 10.7, 3E
2009/04/19, 00:47:22, , , 23.29, 23.20, 1010.9, 16.1466150, -141.1010870, 292.00, 11.91, 290.60, 1011.06, 366.60, 0.0, 199.23, 76.21, 73.9, 99, 7.7, 53.34380, 34.22740, 26.2803, 34.2274, 53.3438, 60.40, 24.3366, 1531.94, 63.00, 62.0, 9.84, 10.3, 3E
2009/04/19, 00:48:22, , , 23.28, 23.20, 1011.0, 16.1478830, -141.1042670, 291.10, 12.01, 290.70, 1010.90, 377.40, 0.0, 199.23, 76.35, 74.0, 106, 7.3, 53.34530, 34.22620, 26.2833, 34.2262, 53.3453, 60.00, 24.3380, 1531.94, 61.70, 67.3, 10.63, 10.0, 3E
2009/04/19, 00:49:22, , , 23.27, 23.10, 1011.0, 16.1491320, -141.1074400, 292.10, 12.20, 291.00, 1010.81, 403.70, 0.0, 199.23, 77.06, 75.3, 103, 7.1, 53.34220, 34.22570, 26.2810, 34.2257, 53.3422, 59.80, 24.3406, 1531.95, 65.20, 68.7, 10.54, 10.2, 3E
2009/04/19, 00:50:22, , , 23.22, 23.10, 1011.2, 16.1503900, -141.1105650, 298.50, 11.63, 289.40, 1011.05, 437.40, 0.0, 199.23, 76.55, 73.8, 103, 6.2, 53.34200, 34.22500, 26.2817, 34.2250, 53.3420, 60.00, 24.3422, 1531.95, 65.10, 69.9, 9.60, 9.7, 3E
2009/04/19, 00:51:22, , , 23.31, 23.10, 1011.2, 16.1516370, -141.1136970, 293.20, 11.79, 290.30, 1010.71, 426.00, 0.0, 199.23, 77.41, 75.6, 110, 8.1, 53.33940, 34.22490, 26.2793, 34.2249, 53.3394, 60.00, 24.3433, 1531.96, 67.20, 68.0, 9.12, 9.9, 3E
2009/04/19, 00:52:22, , , 23.18, 23.10, 1011.1, 16.1528870, -141.1168920, 286.90, 11.66, 291.00, 1010.73, 433.90, 0.0, 199.23, 76.72, 74.2, 98, 7.2, 53.33720, 34.22440, 26.2780, 34.2244, 53.3372, 60.00, 24.3453, 1531.96, 62.30, 62.3, 10.84, 9.9, 3E
2009/04/19, 00:53:23, , , 23.33, 23.10, 1010.6, 16.1541830, -141.1200830, 288.90, 12.40, 290.70, 1010.60, 440.60, 0.0, 199.23, 77.53, 75.9, 104, 7.0, 53.33940, 34.22360, 26.2810, 34.2236, 53.3394, 60.00, 24.3467, 1531.96, 62.80, 67.1, 10.06, 10.1, 3E
2009/04/19, 00:54:22, , , 23.26, 23.10, 1011.0, 16.1554870, -141.1232450, 288.40, 12.36, 291.40, 1010.66, 438.90, 0.0, 199.23, 77.39, 75.5, 104, 7.3, 53.33500, 34.22270, 26.2780, 34.2227, 53.3350, 60.00, 24.3478, 1531.97, 62.70, 66.7, 10.49, 9.3, 3E
2009/04/19, 00:55:23, , , 23.25, 23.10, 1011.0, 16.1567580, -141.1264200, 294.50, 12.18, 290.40, 1010.78, 441.50, 0.0, 199.23, 77.32, 75.4, 108, 6.3, 53.33580, 34.22350, 26.2777, 34.2235, 53.3358, 60.00, 24.3491, 1531.97, 66.30, 75.7, 10.06, 9.2, 3E
2009/04/19, 00:56:22, , , 23.31, 23.10, 1011.0, 16.1580300, -141.1295920, 297.10, 11.79, 289.50, 1010.42, 403.80, 0.0, 199.23, 78.49, 77.0, 103, 8.3, 53.33370, 34.22270, 26.2767, 34.2227, 53.3337, 60.00, 24.3497, 1531.97, 70.40, 67.1, 8.33, 11.1, 3E
2009/04/19, 00:57:22, , , 23.16, 23.10, 1011.0, 16.1593080, -141.1327970, 295.90, 12.02, 291.00, 1010.77, 355.50, 0.0, 199.23, 77.81, 75.7, 96, 6.8, 53.33400, 34.22250, 26.2773, 34.2225, 53.3340, 60.00, 24.3513, 1531.97, 65.80, 71.3, 10.50, 10.4, 3E
2009/04/19, 00:58:22, , , 23.26, 23.10, 1010.8, 16.1606120, -141.1360270, 280.60, 12.44, 294.80, 1010.52, 376.50, 0.0, 199.23, 78.16, 76.6, 94, 8.1, 53.33320, 34.22220, 26.2769, 34.2222, 53.3332, 60.00, 24.3528, 1531.98, 62.50, 69.7, 11.47, 8.2, 3E
2009/04/19, 00:59:22, , , 23.21, 23.10, 1011.0, 16.1618770, -141.1392000, 290.90, 12.16, 291.00, 1010.62, 401.30, 0.0, 199.23, 77.08, 74.9, 97, 8.2, 53.33500, 34.22240, 26.2784, 34.2224, 53.3350, 59.80, 24.3536, 1531.98, 60.30, 61.6, 10.17, 10.6, 3E
2009/04/19, 01:00:22, , , 23.19, 23.00, 1011.1, 16.1631870, -141.1423500, 299.10, 12.28, 290.60, 1010.77, 415.70, 0.0, 199.23, 77.00, 75.0, 93, 7.5, 53.33420, 34.22260, 26.2774, 34.2226, 53.3342, 59.80, 24.3546, 1531.98, 63.70, 65.2, 10.17, 10.3, 3E
2009/04/19, 01:01:22, , , 23.26, 23.00, 1010.8, 16.1644800, -141.1455850, 295.80, 11.63, 292.20, 1010.59, 450.20, 0.0, 199.23, 77.49, 75.9, 94, 8.1, 53.33370, 34.22250, 26.2771, 34.2225, 53.3337, 60.00, 24.3552, 1531.98, 64.30, 57.7, 9.73, 10.2, 3E
2009/04/19, 01:02:22, , , 23.23, 23.10, 1010.7, 16.1657830, -141.1487220, 291.70, 12.05, 291.00, 1010.51, 460.80, 0.0, 199.23, 76.94, 75.1, 104, 8.6, 53.33630, 34.22250, 26.2795, 34.2225, 53.3363, 60.00, 24.3555, 1531.98, 58.20, 60.4, 10.52, 10.8, 3E
2009/04/19, 01:03:22, , , 23.23, 23.10, 1010.8, 16.1670330, -141.1518370, 296.20, 11.79, 289.80, 1010.46, 479.50, 0.0, 199.23, 77.12, 75.3, 93, 7.1, 53.33780, 34.22260, 26.2809, 34.2226, 53.3378, 60.00, 24.3557, 1531.98, 62.20, 67.0, 10.43, 10.1, 3E
2009/04/19, 01:04:22, , , 23.34, 23.10, 1010.7, 16.1682870, -141.1550100, 285.60, 11.95, 291.50, 1010.54, 373.70, 0.0, 199.23, 77.89, 76.3, 100, 7.1, 53.33810, 34.22260, 26.2811, 34.2226, 53.3381, 60.20, 24.3568, 1531.99, 60.30, 68.0, 10.60, 10.5, 3E
2009/04/19, 01:05:22, , , 23.19, 23.10, 1010.6, 16.1695570, -141.1581680, 286.10, 12.13, 292.60, 1010.55, 374.30, 0.0, 199.23, 77.49, 75.6, 95, 8.6, 53.33990, 34.22280, 26.2827, 34.2228, 53.3399, 60.00, 24.3579, 1531.99, 61.00, 63.4, 11.65, 11.5, 3E
2009/04/19, 01:06:22, , , 23.19, 23.00, 1010.9, 16.1708380, -141.1612850, 289.60, 11.97, 290.30, 1010.70, 370.90, 0.0, 199.23, 77.58, 75.8, 107, 8.6, 53.33890, 34.22280, 26.2816, 34.2228, 53.3389, 60.00, 24.3576, 1531.99, 57.80, 64.2, 11.21, 11.5, 3E
2009/04/19, 01:07:22, , , 23.12, 23.00, 1010.9, 16.1721800, -141.1644350, 286.60, 11.95, 291.90, 1010.61, 382.70, 0.0, 199.23, 76.99, 74.9, 98, 7.5, 53.34040, 34.22290, 26.2831, 34.2229, 53.3404, 60.00, 24.3576, 1531.99, 59.70, 69.5, 11.96, 9.4, 3E
2009/04/19, 01:08:22, , , 23.17, 23.00, 1010.7, 16.1735250, -141.1676350, 296.00, 12.11, 290.40, 1010.53, 394.70, 0.0, 199.23, 76.91, 75.1, 107, 8.7, 53.34310, 34.22300, 26.2856, 34.2230, 53.3431, 60.00, 24.3602, 1532.00, 62.90, 65.3, 10.68, 11.6, 3E
2009/04/19, 01:09:22, , , 23.17, 23.00, 1010.8, 16.1747570, -141.1707570, 296.60, 11.79, 290.20, 1010.32, 412.60, 0.0, 199.23, 76.61, 74.8, 107, 8.7, 53.34140, 34.22300, 26.2839, 34.2230, 53.3414, 60.40, 24.3615, 1532.00, 63.70, 64.3, 10.61, 10.6, 3E
2009/04/19, 01:10:22, , , 23.14, 23.00, 1010.8, 16.1760270, -141.1739300, 291.60, 11.62, 291.20, 1010.45, 507.60, 0.0, 199.23, 77.38, 75.3, 103, 8.9, 53.34220, 34.22260, 26.2851, 34.2226, 53.3422, 60.40, 24.3630, 1532.00, 62.00, 61.7, 10.87, 11.7, 3E
2009/04/19, 01:11:22, , , 23.03, 23.00, 1010.8, 16.1772700, -141.1772050, 285.20, 11.69, 291.10, 1010.61, 498.40, 0.0, 199.23, 77.12, 74.5, 113, 7.6, 53.34200, 34.22290, 26.2845, 34.2229, 53.3420, 60.00, 24.3644, 1532.01, 58.80, 70.1, 12.49, 11.0, 3E
2009/04/19, 01:12:22, , , 23.06, 22.90, 1010.8, 16.1784880, -141.1804080, 282.70, 12.57, 289.50, 1010.49, 409.20, 0.0, 199.23, 78.11, 76.0, 109, 7.7, 53.34400, 34.22270, 26.2868, 34.2227, 53.3440, 60.50, 24.3652, 1532.01, 61.10, 69.0, 11.88, 11.1, 3E
2009/04/19, 01:13:22, , , 22.94, 22.90, 1010.8, 16.1796450, -141.1835450, 287.40, 12.02, 289.40, 1010.71, 393.30, 0.0, 199.23, 77.45, 75.0, 111, 8.8, 53.34380, 34.22280, 26.2864, 34.2228, 53.3438, 60.00, 24.3662, 1532.01, 60.60, 66.0, 11.56, 11.6, 3E
2009/04/19, 01:14:22, , , 22.85, 22.80, 1010.7, 16.1808350, -141.1867130, 291.60, 11.86, 288.10, 1010.39, 367.90, 0.0, 199.23, 77.05, 74.4, 107, 8.4, 53.34580, 34.22330, 26.2877, 34.2233, 53.3458, 60.00, 24.3676, 1532.01, 61.10, 63.4, 11.58, 10.8, 3E
2009/04/19, 01:15:22, , , 22.98, 22.90, 1010.7, 16.1820420, -141.1898780, 290.50, 12.18, 289.30, 1010.47, 354.40, 0.0, 199.23, 77.81, 75.9, 111, 9.0, 53.34560, 34.22310, 26.2878, 34.2231, 53.3456, 60.20, 24.3680, 1532.02, 62.10, 64.1, 10.83, 11.9, 3E
2009/04/19, 01:16:22, , , 22.86, 22.80, 1010.8, 16.1832150, -141.1930930, 294.00, 12.76, 290.40, 1010.37, 354.60, 0.0, 199.23, 79.02, 76.2, 105, 9.1, 53.34740, 34.22210, 26.2908, 34.2221, 53.3474, 60.00, 24.3681, 1532.01, 63.90, 60.4, 12.19, 12.4, 3E
2009/04/19, 01:17:22, , , 22.82, 22.80, 1010.6, 16.1844720, -141.1962730, 297.00, 12.50, 290.90, 1010.47, 325.40, 0.0, 199.23, 79.45, 76.9, 112, 9.5, 53.34790, 34.22180, 26.2918, 34.2218, 53.3479, 60.20, 24.3698, 1532.02, 63.10, 63.9, 11.27, 11.2, 3E
2009/04/19, 01:18:22, , , 22.72, 22.70, 1010.6, 16.1856470, -141.1994250, 287.60, 12.15, 289.10, 1010.25, 309.20, 0.0, 199.23, 79.22, 76.8, 118, 8.0, 53.34840, 34.22070, 26.2937, 34.2207, 53.3484, 60.00, 24.3701, 1532.02, 59.20, 69.5, 12.02, 12.0, 3E
2009/04/19, 01:19:22, , , 22.70, 22.70, 1010.6, 16.1867770, -141.2025630, 287.60, 11.38, 289.80, 1010.39, 350.30, 0.0, 199.23, 79.50, 76.8, 107, 8.2, 53.34510, 34.21980, 26.2917, 34.2198, 53.3451, 60.00, 24.3709, 1532.02, 61.70, 66.0, 11.46, 10.6, 3E
2009/04/19, 01:20:22, , , 22.71, 22.70, 1010.7, 16.1879500, -141.2057170, 285.10, 12.02, 290.20, 1010.32, 330.70, 0.0, 199.23, 78.89, 76.9, 109, 8.6, 53.34560, 34.21800, 26.2946, 34.2180, 53.3456, 60.00, 24.3717, 1532.02, 59.90, 68.0, 11.86, 11.1, 3E
2009/04/19, 01:21:22, , , 22.68, 22.60, 1010.7, 16.1891070, -141.2088650, 288.70, 11.56, 288.90, 1010.55, 316.30, 0.0, 199.23, 79.40, 77.2, 113, 8.3, 53.34260, 34.21610, 26.2943, 34.2161, 53.3426, 60.00, 24.3724, 1532.02, 59.70, 67.4, 11.34, 11.6, 3E
2009/04/19, 01:22:22, , , 22.62, 22.60, 1010.7, 16.1902480, -141.2119930, 290.60, 11.80, 289.30, 1010.26, 293.00, 0.0, 199.23, 79.72, 78.0, 115, 8.8, 53.34120, 34.21460, 26.2949, 34.2146, 53.3412, 60.00, 24.3733, 1532.02, 63.80, 66.7, 11.40, 12.3, 3E
2009/04/19, 01:23:22, , , 22.57, 22.50, 1010.5, 16.1914500, -141.2151570, 298.80, 12.38, 290.20, 1010.44, 275.70, 0.0, 199.23, 79.08, 76.4, 106, 9.1, 53.33650, 34.21330, 26.2921, 34.2133, 53.3365, 60.00, 24.3735, 1532.02, 68.80, 59.7, 10.88, 11.9, 3E
2009/04/19, 01:24:22, , , 22.57, 22.50, 1010.5, 16.1926480, -141.2183370, 289.00, 11.68, 288.20, 1010.52, 271.70, 0.0, 199.23, 78.34, 76.3, 112, 8.9, 53.33700, 34.21250, 26.2936, 34.2125, 53.3370, 60.20, 24.3734, 1532.02, 58.20, 66.4, 11.28, 11.5, 3E
2009/04/19, 01:25:22, , , 22.67, 22.60, 1010.6, 16.1938400, -141.2215550, 292.10, 12.05, 289.40, 1010.55, 283.00, 0.0, 199.23, 79.04, 76.9, 103, 8.2, 53.33700, 34.21180, 26.2947, 34.2118, 53.3370, 60.20, 24.3745, 1532.02, 63.50, 59.4, 10.89, 11.3, 3E
2009/04/19, 01:26:22, , , 22.67, 22.60, 1010.7, 16.1949880, -141.2246650, 286.70, 11.10, 288.10, 1010.56, 295.40, 0.0, 199.23, 78.29, 76.4, 111, 7.6, 53.33520, 34.21130, 26.2935, 34.2113, 53.3352, 60.00, 24.3753, 1532.02, 56.80, 73.2, 11.22, 10.0, 3E
2009/04/19, 01:27:22, , , 22.70, 22.60, 1010.7, 16.1961870, -141.2278180, 284.20, 11.90, 289.50, 1010.62, 277.50, 0.0, 199.23, 78.97, 76.9, 99, 7.2, 53.33260, 34.21040, 26.2923, 34.2104, 53.3326, 60.20, 24.3767, 1532.02, 61.50, 67.4, 10.95, 10.1, 3E
2009/04/19, 01:28:22, , , 22.83, 22.70, 1010.7, 16.1974250, -141.2309980, 288.80, 12.26, 290.50, 1010.36, 255.10, 0.0, 199.23, 79.91, 78.4, 106, 7.4, 53.33160, 34.20910, 26.2930, 34.2091, 53.3316, 60.00, 24.3769, 1532.02, 61.70, 71.2, 10.57, 11.9, 3E
2009/04/19, 01:29:22, , , 22.68, 22.70, 1010.7, 16.1985280, -141.2340820, 294.00, 11.03, 288.10, 1010.54, 235.50, 0.0, 199.23, 79.18, 77.4, 107, 8.2, 53.33010, 34.20920, 26.2914, 34.2092, 53.3301, 60.00, 24.3770, 1532.02, 62.90, 63.7, 10.05, 10.3, 3E
2009/04/19, 01:30:22, , , 22.63, 22.60, 1010.9, 16.1996600, -141.2371650, 295.90, 11.69, 288.20, 1010.43, 220.50, 0.0, 199.23, 78.45, 75.9, 116, 8.6, 53.33030, 34.20930, 26.2915, 34.2093, 53.3303, 60.00, 24.3773, 1532.02, 64.50, 62.1, 10.29, 13.0, 3E
2009/04/19, 01:31:22, , , 22.50, 22.60, 1010.9, 16.2008650, -141.2402780, 289.50, 11.63, 290.00, 1010.57, 200.60, 0.0, 199.23, 77.65, 75.2, 106, 7.3, 53.33060, 34.20860, 26.2927, 34.2086, 53.3306, 60.50, 24.3775, 1532.02, 62.00, 65.4, 11.05, 10.8, 3E
2009/04/19, 01:32:22, , , 22.65, 22.60, 1010.7, 16.2020250, -141.2434280, 288.50, 11.92, 287.30, 1010.61, 184.40, 0.0, 199.23, 77.70, 76.1, 114, 7.9, 53.33030, 34.20840, 26.2928, 34.2084, 53.3303, 60.20, 24.3777, 1532.02, 60.50, 72.7, 10.99, 10.4, 3E
2009/04/19, 01:33:22, , , 22.56, 22.50, 1010.7, 16.2031280, -141.2465300, 283.80, 11.51, 290.00, 1010.58, 176.50, 0.0, 199.23, 77.28, 74.6, 105, 7.7, 53.32830, 34.20830, 26.2909, 34.2083, 53.3283, 60.00, 24.3773, 1532.02, 63.90, 63.1, 10.93, 10.0, 3E